MQC9214 GFLL-GMME

Flight info

Callsign MQC9214
Flight time 3h 20m
Altitude 33000
Route GIA UR72 BUMBI UR722 SADKA/N0479F350 UR722 BULIS UM372 TOPMA DCT BISMI
Aircraft B77L/H-SDE1E2E3FGHIJ2J3J4J5M1RWXY/LB1D1

Departure

Time 2026-05-05 12:30
Airport Lungi International Airport (GFLL)

Arrival

Time 2026-05-05 15:50
Airport Rabat-Salé Airport (GMME)
Time Latitude Longitude Altitude Speed Heading
2026-05-05 12:13 8.61720 -13.18811 103 ft 0 kts 15°
2026-05-05 12:23 8.61719 -13.18811 103 ft 2 kts 15°
2026-05-05 12:23 8.61711 -13.18813 103 ft 0 kts 15°
2026-05-05 12:23 8.61704 -13.18815 103 ft 4 kts 17°
2026-05-05 12:23 8.61678 -13.18824 101 ft 4 kts 21°
2026-05-05 12:24 8.61653 -13.18835 103 ft 4 kts 26°
2026-05-05 12:24 8.61630 -13.18848 100 ft 4 kts 37°
2026-05-05 12:24 8.61612 -13.18866 101 ft 4 kts 71°
2026-05-05 12:24 8.61610 -13.18879 102 ft 1 kts 107°
2026-05-05 12:27 8.61596 -13.18836 104 ft 16 kts 107°
2026-05-05 12:27 8.61546 -13.18674 104 ft 26 kts 107°
2026-05-05 12:27 8.61493 -13.18500 106 ft 26 kts 107°
2026-05-05 12:27 8.61445 -13.18342 105 ft 16 kts 107°
2026-05-05 12:28 8.61413 -13.18236 103 ft 15 kts 106°
2026-05-05 12:28 8.61360 -13.18149 104 ft 16 kts 168°
2026-05-05 12:28 8.61254 -13.18165 105 ft 15 kts 194°
2026-05-05 12:28 8.61236 -13.18228 108 ft 10 kts 288°
2026-05-05 12:29 8.61266 -13.18318 107 ft 24 kts 288°
2026-05-05 12:29 8.61379 -13.18686 107 ft 90 kts 286°
2026-05-05 12:29 8.61631 -13.19501 104 ft 151 kts 286°
2026-05-05 12:29 8.62002 -13.20663 171 ft 187 kts 289°
2026-05-05 12:30 8.62481 -13.21855 730 ft 183 kts 302°
2026-05-05 12:30 8.63478 -13.22592 1322 ft 181 kts 336°
2026-05-05 12:30 8.64720 -13.23071 1525 ft 202 kts 336°
2026-05-05 12:30 8.66081 -13.23616 1753 ft 223 kts 336°
2026-05-05 12:31 8.67603 -13.24231 2003 ft 249 kts 337°
2026-05-05 12:31 8.69238 -13.24892 2584 ft 256 kts 337°
2026-05-05 12:31 8.70917 -13.25580 3207 ft 266 kts 337°
2026-05-05 12:31 8.72642 -13.26295 3972 ft 269 kts 338°
2026-05-05 12:32 8.74388 -13.27021 4685 ft 273 kts 339°
2026-05-05 12:32 8.76164 -13.27760 5351 ft 278 kts 340°
2026-05-05 12:32 8.77964 -13.28514 5993 ft 282 kts 340°
2026-05-05 12:32 8.79786 -13.29282 6659 ft 286 kts 341°
2026-05-05 12:33 8.81635 -13.30062 7259 ft 290 kts 341°
2026-05-05 12:33 8.83509 -13.30853 7860 ft 294 kts 341°
2026-05-05 12:33 8.85411 -13.31658 8443 ft 298 kts 342°
2026-05-05 12:33 8.87336 -13.32473 9056 ft 303 kts 343°
2026-05-05 12:34 8.89294 -13.33301 9670 ft 307 kts 343°
2026-05-05 12:34 8.91274 -13.34140 10199 ft 312 kts 343°
2026-05-05 12:34 8.93336 -13.35009 10422 ft 332 kts 343°
2026-05-05 12:34 8.95507 -13.35922 10603 ft 353 kts 343°
2026-05-05 12:35 8.97873 -13.36919 10754 ft 375 kts 342°
2026-05-05 12:35 9.00307 -13.37950 11059 ft 390 kts 342°
2026-05-05 12:35 9.02837 -13.39027 11585 ft 399 kts 342°
2026-05-05 12:35 9.05416 -13.40127 12290 ft 403 kts 342°
2026-05-05 12:36 9.08007 -13.41234 13100 ft 406 kts 342°
2026-05-05 12:36 9.10614 -13.42346 13845 ft 409 kts 342°
2026-05-05 12:36 9.13252 -13.43469 14467 ft 413 kts 341°
2026-05-05 12:36 9.15915 -13.44601 15089 ft 417 kts 341°
2026-05-05 12:37 9.18607 -13.45745 15721 ft 421 kts 341°
2026-05-05 12:37 9.21324 -13.46900 16335 ft 425 kts 340°
2026-05-05 12:37 9.24065 -13.48065 16972 ft 428 kts 340°
2026-05-05 12:37 9.26818 -13.49236 17601 ft 432 kts 340°
2026-05-05 12:38 9.29599 -13.50419 18190 ft 436 kts 340°
2026-05-05 12:38 9.32404 -13.51613 18709 ft 439 kts 339°
2026-05-05 12:38 9.35230 -13.52815 19222 ft 441 kts 339°
2026-05-05 12:38 9.38069 -13.54023 19789 ft 443 kts 339°
2026-05-05 12:39 9.40912 -13.55234 20342 ft 445 kts 339°
2026-05-05 12:39 9.43778 -13.56453 20838 ft 448 kts 338°
2026-05-05 12:39 9.46659 -13.57680 21331 ft 451 kts 339°
2026-05-05 12:39 9.49564 -13.58917 21782 ft 455 kts 338°
2026-05-05 12:40 9.52496 -13.60161 22214 ft 455 kts 339°
2026-05-05 12:40 9.55544 -13.61045 22607 ft 459 kts 352°
2026-05-05 12:40 9.58732 -13.61188 23075 ft 460 kts
2026-05-05 12:40 9.61893 -13.60661 23520 ft 460 kts 15°
2026-05-05 12:41 9.64930 -13.59733 23806 ft 465 kts 17°
2026-05-05 12:41 9.68072 -13.58747 24133 ft 468 kts 17°
2026-05-05 12:41 9.71151 -13.57789 24530 ft 469 kts 17°
2026-05-05 12:41 9.74283 -13.56827 24935 ft 471 kts 16°
2026-05-05 12:42 9.77422 -13.55877 25346 ft 472 kts 15°
2026-05-05 12:42 9.80576 -13.54933 25727 ft 473 kts 16°
2026-05-05 12:42 9.83743 -13.53990 26082 ft 476 kts 15°
2026-05-05 12:42 9.86925 -13.53044 26434 ft 478 kts 15°
2026-05-05 12:43 9.90124 -13.52094 26752 ft 480 kts 15°
2026-05-05 12:43 9.93337 -13.51139 27101 ft 483 kts 15°
2026-05-05 12:43 9.96579 -13.50174 27370 ft 487 kts 15°
2026-05-05 12:43 9.99838 -13.49204 27713 ft 489 kts 15°
2026-05-05 12:44 10.03105 -13.48230 28109 ft 490 kts 15°
2026-05-05 12:44 10.06375 -13.47256 28472 ft 491 kts 15°
2026-05-05 12:44 10.08552 -13.46607 28705 ft 493 kts 15°
2026-05-05 12:44 10.11850 -13.45624 29018 ft 495 kts 15°
2026-05-05 12:45 10.15160 -13.44636 29347 ft 497 kts 14°
2026-05-05 12:45 10.18481 -13.43646 29662 ft 498 kts 14°
2026-05-05 12:45 10.22939 -13.42316 30063 ft 500 kts 14°
2026-05-05 12:45 10.25158 -13.41687 30267 ft 499 kts 12°
2026-05-05 12:46 10.28556 -13.40985 30606 ft 497 kts
2026-05-05 12:46 10.31970 -13.40405 30912 ft 498 kts
2026-05-05 12:46 10.35395 -13.39841 31208 ft 499 kts
2026-05-05 12:46 10.38823 -13.39273 31558 ft 499 kts
2026-05-05 12:47 10.42242 -13.38696 31933 ft 498 kts
2026-05-05 12:47 10.45657 -13.38111 32291 ft 498 kts
2026-05-05 12:47 10.49078 -13.37517 32634 ft 498 kts
2026-05-05 12:47 10.52500 -13.36921 32870 ft 501 kts
2026-05-05 12:48 10.59388 -13.35719 32934 ft 501 kts
2026-05-05 12:48 10.66223 -13.34525 32934 ft 496 kts
2026-05-05 12:49 10.73023 -13.33339 32932 ft 495 kts
2026-05-05 12:49 10.79803 -13.32157 32932 ft 494 kts
2026-05-05 12:50 10.86588 -13.30973 32935 ft 495 kts
2026-05-05 12:50 10.93391 -13.29785 32938 ft 496 kts
2026-05-05 12:51 11.00164 -13.28607 32940 ft 497 kts
2026-05-05 12:51 11.07000 -13.27421 32931 ft 499 kts
2026-05-05 12:52 11.13844 -13.26233 32938 ft 499 kts
2026-05-05 12:52 11.20701 -13.25041 32942 ft 500 kts
2026-05-05 12:53 11.27568 -13.23846 32936 ft 501 kts
2026-05-05 12:53 11.34436 -13.22651 32938 ft 501 kts
2026-05-05 12:54 11.44743 -13.20855 32945 ft 501 kts
2026-05-05 12:55 11.51617 -13.19657 32943 ft 501 kts
2026-05-05 12:55 11.58493 -13.18458 32936 ft 501 kts
2026-05-05 12:56 11.65365 -13.17259 32938 ft 501 kts
2026-05-05 12:56 11.72240 -13.16059 32937 ft 501 kts
2026-05-05 12:57 11.79115 -13.14816 32922 ft 502 kts 10°
2026-05-05 12:57 11.85893 -13.13041 32924 ft 504 kts 12°
2026-05-05 12:58 11.92661 -13.11179 32925 ft 504 kts 12°
2026-05-05 12:58 11.99435 -13.09340 32923 ft 504 kts 12°
2026-05-05 12:59 12.06219 -13.07521 32918 ft 504 kts 12°
2026-05-05 12:59 12.13005 -13.05704 32924 ft 504 kts 12°
2026-05-05 13:00 12.23146 -13.02984 32920 ft 505 kts 12°
2026-05-05 13:01 12.36742 -12.99330 32914 ft 505 kts 12°
2026-05-05 13:01 12.43546 -12.97515 32913 ft 505 kts 11°
2026-05-05 13:02 12.50367 -12.95790 32909 ft 505 kts 10°
2026-05-05 13:02 12.57233 -12.94224 32913 ft 507 kts
2026-05-05 13:03 12.64128 -12.92671 32900 ft 507 kts
2026-05-05 13:03 12.71001 -12.91096 32895 ft 506 kts
2026-05-05 13:04 12.77863 -12.89509 32890 ft 505 kts
2026-05-05 13:04 12.84717 -12.87922 32891 ft 505 kts
2026-05-05 13:05 12.91562 -12.86337 32889 ft 504 kts
2026-05-05 13:05 12.98414 -12.84751 32890 ft 505 kts
2026-05-05 13:06 13.05225 -12.83174 32887 ft 505 kts
2026-05-05 13:06 13.12086 -12.81583 32883 ft 506 kts
2026-05-05 13:07 13.18958 -12.79990 32884 ft 506 kts
2026-05-05 13:07 13.25838 -12.78393 32878 ft 507 kts
2026-05-05 13:08 13.32719 -12.76795 32878 ft 507 kts
2026-05-05 13:08 13.39606 -12.75195 32886 ft 507 kts
2026-05-05 13:09 13.46494 -12.73594 32875 ft 508 kts
2026-05-05 13:09 13.53388 -12.71990 32887 ft 507 kts
2026-05-05 13:10 13.60271 -12.70390 32890 ft 508 kts
2026-05-05 13:10 13.67165 -12.68789 32870 ft 508 kts
2026-05-05 13:11 13.74060 -12.67186 32881 ft 507 kts
2026-05-05 13:11 13.80939 -12.65585 32874 ft 507 kts
2026-05-05 13:12 13.87812 -12.63985 32876 ft 506 kts
2026-05-05 13:12 13.94688 -12.62383 32869 ft 507 kts
2026-05-05 13:13 14.01572 -12.60778 32869 ft 507 kts
2026-05-05 13:13 14.08451 -12.59173 32870 ft 507 kts
2026-05-05 13:14 14.15331 -12.57567 32869 ft 507 kts
2026-05-05 13:14 14.22213 -12.55960 32865 ft 507 kts
2026-05-05 13:15 14.29052 -12.54361 32866 ft 507 kts
2026-05-05 13:15 14.35936 -12.52751 32867 ft 507 kts
2026-05-05 13:16 14.42825 -12.51139 32865 ft 508 kts
2026-05-05 13:16 14.49713 -12.49526 32865 ft 508 kts
2026-05-05 13:17 14.56605 -12.47911 32860 ft 508 kts
2026-05-05 13:17 14.63495 -12.46295 32861 ft 508 kts
2026-05-05 13:18 14.70389 -12.44677 32860 ft 508 kts
2026-05-05 13:18 14.77286 -12.43058 32859 ft 508 kts
2026-05-05 13:19 14.84185 -12.41437 32855 ft 509 kts
2026-05-05 13:19 14.91082 -12.39813 32859 ft 508 kts
2026-05-05 13:20 14.97982 -12.38188 32861 ft 509 kts
2026-05-05 13:20 15.04883 -12.36562 32860 ft 509 kts
2026-05-05 13:21 15.11781 -12.34934 32857 ft 508 kts
2026-05-05 13:21 15.18677 -12.33306 32850 ft 508 kts
2026-05-05 13:22 15.25574 -12.31678 32857 ft 508 kts
2026-05-05 13:22 15.32466 -12.30049 32860 ft 508 kts
2026-05-05 13:23 15.39365 -12.28418 32856 ft 508 kts
2026-05-05 13:23 15.46265 -12.26784 32860 ft 509 kts
2026-05-05 13:24 15.53170 -12.25149 32858 ft 509 kts
2026-05-05 13:24 15.60024 -12.23524 32858 ft 509 kts
2026-05-05 13:25 15.66933 -12.21887 32865 ft 509 kts
2026-05-05 13:25 15.73843 -12.20250 32864 ft 510 kts
2026-05-05 13:26 15.80760 -12.18608 32857 ft 510 kts
2026-05-05 13:26 15.87675 -12.16966 32865 ft 510 kts
2026-05-05 13:27 15.94594 -12.15321 32864 ft 510 kts
2026-05-05 13:27 16.01507 -12.13676 32877 ft 510 kts
2026-05-05 13:28 16.08425 -12.12030 32862 ft 510 kts
2026-05-05 13:28 16.15348 -12.10381 32865 ft 510 kts
2026-05-05 13:29 16.22263 -12.08732 32864 ft 510 kts
2026-05-05 13:29 16.29186 -12.07081 32861 ft 510 kts
2026-05-05 13:30 16.36110 -12.05428 32872 ft 510 kts
2026-05-05 13:30 16.43035 -12.03774 32860 ft 511 kts
2026-05-05 13:31 16.49915 -12.02129 32857 ft 511 kts
2026-05-05 13:31 16.56837 -12.00472 32858 ft 510 kts
2026-05-05 13:32 16.63746 -11.98818 32854 ft 509 kts
2026-05-05 13:32 16.70654 -11.97163 32876 ft 509 kts
2026-05-05 13:33 16.76439 -11.95775 32863 ft 509 kts
2026-05-05 13:33 16.83346 -11.94118 32862 ft 509 kts
2026-05-05 13:34 16.90209 -11.92469 32859 ft 509 kts
2026-05-05 13:34 16.97163 -11.90796 32860 ft 510 kts
2026-05-05 13:35 17.04075 -11.89131 32862 ft 510 kts
2026-05-05 13:35 17.10954 -11.87473 32853 ft 511 kts
2026-05-05 13:36 17.17894 -11.85799 32858 ft 512 kts
2026-05-05 13:36 17.24838 -11.84123 32860 ft 512 kts
2026-05-05 13:37 17.31792 -11.82443 32874 ft 513 kts
2026-05-05 13:37 17.38752 -11.80760 32859 ft 513 kts
2026-05-05 13:38 17.45715 -11.79075 32868 ft 514 kts
2026-05-05 13:38 17.52692 -11.77386 32868 ft 514 kts
2026-05-05 13:39 17.59666 -11.75695 32868 ft 515 kts
2026-05-05 13:39 17.66643 -11.74003 32863 ft 515 kts
2026-05-05 13:40 17.73624 -11.72309 32866 ft 514 kts
2026-05-05 13:40 17.80595 -11.70615 32863 ft 514 kts
2026-05-05 13:41 17.87565 -11.68920 32866 ft 514 kts
2026-05-05 13:41 17.94541 -11.67222 32863 ft 514 kts
2026-05-05 13:42 18.01512 -11.65524 32868 ft 514 kts
2026-05-05 13:42 18.08481 -11.63827 32883 ft 514 kts
2026-05-05 13:43 18.15417 -11.62140 32900 ft 518 kts
2026-05-05 13:43 18.18981 -11.61275 33152 ft 520 kts
2026-05-05 13:43 18.22454 -11.60429 33543 ft 518 kts
2026-05-05 13:44 18.25959 -11.59573 33950 ft 516 kts
2026-05-05 13:44 18.29450 -11.58719 34317 ft 514 kts
2026-05-05 13:44 18.32927 -11.57868 34655 ft 512 kts
2026-05-05 13:44 18.36400 -11.57020 34894 ft 513 kts
2026-05-05 13:45 18.43387 -11.55318 34889 ft 514 kts
2026-05-05 13:45 18.50332 -11.53618 34874 ft 511 kts
2026-05-05 13:46 18.57242 -11.51926 34858 ft 509 kts
2026-05-05 13:46 18.64129 -11.50240 34865 ft 507 kts
2026-05-05 13:47 18.71011 -11.48556 34866 ft 508 kts
2026-05-05 13:47 18.77907 -11.46866 34886 ft 510 kts
2026-05-05 13:48 18.84829 -11.45169 34854 ft 512 kts
2026-05-05 13:48 18.91772 -11.43463 34857 ft 513 kts
2026-05-05 13:49 18.98733 -11.41751 34850 ft 514 kts
2026-05-05 13:49 19.05712 -11.40033 34861 ft 515 kts
2026-05-05 13:50 19.12696 -11.38311 34876 ft 515 kts
2026-05-05 13:50 19.19667 -11.36591 34851 ft 514 kts
2026-05-05 13:51 19.26565 -11.34888 34844 ft 511 kts
2026-05-05 13:51 19.33474 -11.33181 34852 ft 509 kts
2026-05-05 13:52 19.40354 -11.31481 34860 ft 507 kts
2026-05-05 13:52 19.47218 -11.29784 34867 ft 506 kts
2026-05-05 13:53 19.54075 -11.28088 34855 ft 506 kts
2026-05-05 13:53 19.60937 -11.26387 34858 ft 506 kts
2026-05-05 13:54 19.67793 -11.24687 34859 ft 507 kts
2026-05-05 13:54 19.74665 -11.22981 34859 ft 507 kts
2026-05-05 13:55 19.81542 -11.21273 34866 ft 508 kts
2026-05-05 13:55 19.88393 -11.19568 34863 ft 509 kts
2026-05-05 13:56 19.95344 -11.17837 34859 ft 510 kts
2026-05-05 13:56 20.02217 -11.16125 34862 ft 511 kts
2026-05-05 13:57 20.09141 -11.14400 34860 ft 511 kts
2026-05-05 13:57 20.16074 -11.12669 34867 ft 512 kts
2026-05-05 13:58 20.23015 -11.10935 34863 ft 512 kts
2026-05-05 13:58 20.29954 -11.09199 34859 ft 513 kts
2026-05-05 13:59 20.40362 -11.06591 34863 ft 512 kts
2026-05-05 14:00 20.49590 -11.04278 34872 ft 512 kts
2026-05-05 14:00 20.57694 -11.02244 34868 ft 512 kts
2026-05-05 14:01 20.64627 -11.00501 34863 ft 512 kts
2026-05-05 14:01 20.71556 -10.98758 34866 ft 512 kts
2026-05-05 14:02 20.78439 -10.97025 34867 ft 512 kts
2026-05-05 14:02 20.85374 -10.95279 34878 ft 513 kts
2026-05-05 14:03 20.92322 -10.93527 34869 ft 513 kts
2026-05-05 14:03 20.99269 -10.91772 34873 ft 513 kts
2026-05-05 14:04 21.06224 -10.90014 34878 ft 513 kts
2026-05-05 14:04 21.13182 -10.88254 34876 ft 514 kts
2026-05-05 14:05 21.20134 -10.86494 34875 ft 514 kts
2026-05-05 14:05 21.27094 -10.84729 34872 ft 514 kts
2026-05-05 14:06 21.34050 -10.82964 34874 ft 514 kts
2026-05-05 14:06 21.41004 -10.81198 34875 ft 514 kts
2026-05-05 14:07 21.47960 -10.79431 34882 ft 514 kts
2026-05-05 14:07 21.54922 -10.77660 34875 ft 514 kts
2026-05-05 14:08 21.61876 -10.75888 34862 ft 514 kts
2026-05-05 14:08 21.68834 -10.74114 34871 ft 514 kts
2026-05-05 14:09 21.75792 -10.72338 34872 ft 514 kts
2026-05-05 14:09 21.82705 -10.70573 34879 ft 514 kts
2026-05-05 14:10 21.89674 -10.68791 34869 ft 515 kts
2026-05-05 14:10 21.96658 -10.67004 34868 ft 516 kts
2026-05-05 14:11 22.03642 -10.65214 34869 ft 516 kts
2026-05-05 14:11 22.10636 -10.63420 34864 ft 517 kts
2026-05-05 14:12 22.17640 -10.61622 34879 ft 517 kts
2026-05-05 14:12 22.24642 -10.59821 34875 ft 518 kts
2026-05-05 14:13 22.31650 -10.58018 34875 ft 518 kts
2026-05-05 14:13 22.38655 -10.56213 34876 ft 517 kts
2026-05-05 14:14 22.45655 -10.54409 34891 ft 517 kts
2026-05-05 14:14 22.52659 -10.52601 34878 ft 517 kts
2026-05-05 14:15 22.59658 -10.50793 34879 ft 517 kts
2026-05-05 14:15 22.66663 -10.48981 34874 ft 517 kts
2026-05-05 14:16 22.73658 -10.47169 34873 ft 517 kts
2026-05-05 14:16 22.80655 -10.45355 34890 ft 517 kts
2026-05-05 14:17 22.87656 -10.43539 34886 ft 517 kts
2026-05-05 14:17 22.94655 -10.41722 34885 ft 517 kts
2026-05-05 14:18 23.01664 -10.39902 34871 ft 517 kts
2026-05-05 14:18 23.08624 -10.38091 34902 ft 518 kts
2026-05-05 14:19 23.15632 -10.36265 34885 ft 518 kts
2026-05-05 14:19 23.22643 -10.34437 34879 ft 518 kts
2026-05-05 14:20 23.29654 -10.32606 34880 ft 518 kts
2026-05-05 14:20 23.36671 -10.30772 34879 ft 518 kts
2026-05-05 14:21 23.43687 -10.28936 34896 ft 518 kts
2026-05-05 14:21 23.50689 -10.27102 34879 ft 517 kts
2026-05-05 14:22 23.57689 -10.25266 34875 ft 516 kts
2026-05-05 14:22 23.64666 -10.23434 34878 ft 515 kts
2026-05-05 14:23 23.70457 -10.21913 34879 ft 515 kts
2026-05-05 14:23 23.78606 -10.19770 34879 ft 515 kts
2026-05-05 14:24 23.84393 -10.18246 34881 ft 515 kts
2026-05-05 14:24 23.91350 -10.16412 34882 ft 514 kts
2026-05-05 14:25 23.98306 -10.14576 34883 ft 514 kts
2026-05-05 14:25 24.05261 -10.12739 34907 ft 514 kts
2026-05-05 14:26 24.12229 -10.10896 34884 ft 515 kts
2026-05-05 14:26 24.19203 -10.09050 34883 ft 516 kts
2026-05-05 14:27 24.26191 -10.07198 34879 ft 516 kts
2026-05-05 14:27 24.33178 -10.05343 34876 ft 517 kts
2026-05-05 14:28 24.40169 -10.03485 34879 ft 517 kts
2026-05-05 14:28 24.47161 -10.01625 34873 ft 517 kts
2026-05-05 14:29 24.54156 -9.99763 34875 ft 517 kts
2026-05-05 14:29 24.61147 -9.97898 34871 ft 517 kts
2026-05-05 14:30 24.68091 -9.96045 34892 ft 517 kts
2026-05-05 14:30 24.75087 -9.94176 34877 ft 518 kts
2026-05-05 14:31 24.82085 -9.92303 34874 ft 518 kts
2026-05-05 14:31 24.89084 -9.90428 34874 ft 518 kts
2026-05-05 14:32 24.96080 -9.88552 34873 ft 517 kts
2026-05-05 14:32 25.03078 -9.86674 34886 ft 518 kts
2026-05-05 14:33 25.10081 -9.84792 34875 ft 518 kts
2026-05-05 14:33 25.17086 -9.82907 34869 ft 518 kts
2026-05-05 14:34 25.24085 -9.81021 34870 ft 517 kts
2026-05-05 14:34 25.31076 -9.79135 34872 ft 517 kts
2026-05-05 14:35 25.38071 -9.77246 34867 ft 518 kts
2026-05-05 14:35 25.45068 -9.75355 34876 ft 517 kts
2026-05-05 14:36 25.52060 -9.73462 34871 ft 518 kts
2026-05-05 14:36 25.59058 -9.71565 34882 ft 517 kts
2026-05-05 14:37 25.66052 -9.69667 34888 ft 518 kts
2026-05-05 14:37 25.73066 -9.67762 34874 ft 519 kts
2026-05-05 14:38 25.80079 -9.65855 34877 ft 519 kts
2026-05-05 14:38 25.87094 -9.63944 34879 ft 519 kts
2026-05-05 14:39 25.94109 -9.62031 34902 ft 519 kts
2026-05-05 14:39 26.01125 -9.60115 34882 ft 519 kts
2026-05-05 14:40 26.08142 -9.58197 34882 ft 519 kts
2026-05-05 14:40 26.15163 -9.56275 34880 ft 519 kts
2026-05-05 14:41 26.22178 -9.54353 34886 ft 519 kts
2026-05-05 14:41 26.29189 -9.52430 34887 ft 519 kts
2026-05-05 14:42 26.36208 -9.50502 34875 ft 519 kts
2026-05-05 14:42 26.43173 -9.48586 34881 ft 519 kts
2026-05-05 14:43 26.50185 -9.46655 34888 ft 519 kts
2026-05-05 14:43 26.57189 -9.44723 34906 ft 518 kts
2026-05-05 14:44 26.64194 -9.42789 34885 ft 518 kts
2026-05-05 14:44 26.71189 -9.40856 34880 ft 518 kts
2026-05-05 14:45 26.78181 -9.38920 34880 ft 517 kts
2026-05-05 14:45 26.85173 -9.36982 34873 ft 517 kts
2026-05-05 14:46 26.92159 -9.35044 34883 ft 518 kts
2026-05-05 14:46 26.99149 -9.33102 34877 ft 518 kts
2026-05-05 14:47 27.06143 -9.31156 34876 ft 518 kts
2026-05-05 14:47 27.13129 -9.29210 34875 ft 517 kts
2026-05-05 14:48 27.20117 -9.27261 34885 ft 518 kts
2026-05-05 14:48 27.27109 -9.25308 34876 ft 518 kts
2026-05-05 14:49 27.34096 -9.23354 34883 ft 517 kts
2026-05-05 14:49 27.41084 -9.21397 34881 ft 517 kts
2026-05-05 14:50 27.48073 -9.19437 34880 ft 517 kts
2026-05-05 14:50 27.55014 -9.17488 34882 ft 518 kts
2026-05-05 14:51 27.62001 -9.15524 34880 ft 518 kts
2026-05-05 14:51 27.68998 -9.13572 34879 ft 517 kts
2026-05-05 14:52 27.76007 -9.11784 34882 ft 516 kts
2026-05-05 14:52 27.83016 -9.10046 34887 ft 516 kts
2026-05-05 14:53 27.90035 -9.08282 34868 ft 516 kts
2026-05-05 14:53 27.97039 -9.06500 34876 ft 516 kts
2026-05-05 14:54 28.04040 -9.04712 34878 ft 516 kts
2026-05-05 14:54 28.11044 -9.02923 34883 ft 516 kts
2026-05-05 14:55 28.18050 -9.01132 34878 ft 516 kts
2026-05-05 14:55 28.25052 -8.99340 34867 ft 516 kts
2026-05-05 14:56 28.31998 -8.97557 34864 ft 515 kts
2026-05-05 14:56 28.38989 -8.95765 34882 ft 515 kts
2026-05-05 14:57 28.45977 -8.93970 34852 ft 515 kts
2026-05-05 14:57 28.52966 -8.92171 34847 ft 515 kts
2026-05-05 14:58 28.59952 -8.90370 34846 ft 515 kts
2026-05-05 14:58 28.66942 -8.88567 34873 ft 515 kts
2026-05-05 14:59 28.73933 -8.86760 34843 ft 515 kts
2026-05-05 14:59 28.80923 -8.84951 34835 ft 515 kts
2026-05-05 15:00 28.86730 -8.83447 34831 ft 515 kts
2026-05-05 15:00 28.94888 -8.81329 34834 ft 514 kts
2026-05-05 15:01 29.01873 -8.79514 34838 ft 515 kts
2026-05-05 15:01 29.08853 -8.77697 34833 ft 514 kts
2026-05-05 15:02 29.15784 -8.75890 34826 ft 514 kts
2026-05-05 15:02 29.22759 -8.74068 34832 ft 514 kts
2026-05-05 15:03 29.29728 -8.72246 34837 ft 515 kts
2026-05-05 15:03 29.36710 -8.70418 34864 ft 514 kts
2026-05-05 15:04 29.43680 -8.68588 34899 ft 514 kts
2026-05-05 15:04 29.50648 -8.66758 34881 ft 514 kts
2026-05-05 15:05 29.61084 -8.64018 34901 ft 512 kts
2026-05-05 15:06 29.68022 -8.62183 34929 ft 512 kts
2026-05-05 15:06 29.74963 -8.60349 34922 ft 512 kts
2026-05-05 15:07 29.81908 -8.58517 34923 ft 512 kts
2026-05-05 15:07 29.88850 -8.56681 34946 ft 513 kts
2026-05-05 15:08 29.95802 -8.54836 34958 ft 513 kts
2026-05-05 15:08 30.02736 -8.52998 34956 ft 517 kts
2026-05-05 15:09 30.09753 -8.51134 34947 ft 518 kts
2026-05-05 15:09 30.16785 -8.49258 34957 ft 519 kts
2026-05-05 15:10 30.23821 -8.47380 34957 ft 520 kts
2026-05-05 15:10 30.30869 -8.45500 34959 ft 520 kts
2026-05-05 15:11 30.37918 -8.43616 34949 ft 520 kts
2026-05-05 15:11 30.44959 -8.41728 34952 ft 520 kts
2026-05-05 15:12 30.50812 -8.40157 34955 ft 519 kts
2026-05-05 15:12 30.57844 -8.38207 34952 ft 523 kts
2026-05-05 15:13 30.65902 -8.34703 34964 ft 532 kts 13°
2026-05-05 15:13 30.71588 -8.31956 34998 ft 532 kts 13°
2026-05-05 15:14 30.78433 -8.28668 34988 ft 532 kts 12°
2026-05-05 15:14 30.85302 -8.25407 34998 ft 533 kts 13°
2026-05-05 15:15 30.92166 -8.22184 34999 ft 531 kts 12°
2026-05-05 15:15 30.99007 -8.18964 35071 ft 530 kts 13°
2026-05-05 15:16 31.05857 -8.15728 35073 ft 531 kts 13°
2026-05-05 15:16 31.12698 -8.12492 35072 ft 529 kts 12°
2026-05-05 15:17 31.19522 -8.09240 35035 ft 530 kts 13°
2026-05-05 15:17 31.26353 -8.05997 35039 ft 530 kts 13°
2026-05-05 15:18 31.33193 -8.02749 35021 ft 531 kts 12°
2026-05-05 15:18 31.40031 -7.99489 34998 ft 531 kts 12°
2026-05-05 15:19 31.46821 -7.96246 34981 ft 531 kts 12°
2026-05-05 15:19 31.53655 -7.92978 34972 ft 530 kts 12°
2026-05-05 15:20 31.60490 -7.89705 34985 ft 531 kts 12°
2026-05-05 15:20 31.67329 -7.86425 35011 ft 531 kts 12°
2026-05-05 15:21 31.74167 -7.83140 34987 ft 531 kts 12°
2026-05-05 15:21 31.81002 -7.79850 34988 ft 531 kts 12°
2026-05-05 15:22 31.87831 -7.76559 34999 ft 531 kts 12°
2026-05-05 15:22 31.94655 -7.73265 34992 ft 529 kts 12°
2026-05-05 15:23 32.01461 -7.69973 34987 ft 528 kts 12°
2026-05-05 15:23 32.08249 -7.66685 34988 ft 527 kts 12°
2026-05-05 15:24 32.15030 -7.63397 34997 ft 527 kts 13°
2026-05-05 15:24 32.21803 -7.60107 34991 ft 526 kts 13°
2026-05-05 15:25 32.28560 -7.56818 34982 ft 525 kts 13°
2026-05-05 15:25 32.35304 -7.53530 34984 ft 523 kts 13°
2026-05-05 15:25 32.38662 -7.51890 34687 ft 522 kts 13°
2026-05-05 15:26 32.42015 -7.50253 34250 ft 520 kts 14°
2026-05-05 15:26 32.45344 -7.48624 33756 ft 516 kts 14°
2026-05-05 15:26 32.48646 -7.47006 33218 ft 512 kts 14°
2026-05-05 15:26 32.51928 -7.45397 32736 ft 508 kts 14°
2026-05-05 15:27 32.55178 -7.43803 32244 ft 504 kts 15°
2026-05-05 15:27 32.58402 -7.42222 31778 ft 500 kts 15°
2026-05-05 15:27 32.61564 -7.40671 31311 ft 496 kts 15°
2026-05-05 15:27 32.64743 -7.39112 30863 ft 493 kts 15°
2026-05-05 15:28 32.67907 -7.37558 30406 ft 491 kts 14°
2026-05-05 15:28 32.71056 -7.36009 29885 ft 489 kts 14°
2026-05-05 15:28 32.74194 -7.34466 29334 ft 487 kts 15°
2026-05-05 15:28 32.77314 -7.32930 28842 ft 484 kts 15°
2026-05-05 15:29 32.80413 -7.31402 28359 ft 480 kts 15°
2026-05-05 15:29 32.83486 -7.29885 27881 ft 477 kts 15°
2026-05-05 15:29 32.86537 -7.28379 27415 ft 473 kts 16°
2026-05-05 15:29 32.89568 -7.26881 26956 ft 470 kts 16°
2026-05-05 15:30 32.92577 -7.25394 26500 ft 467 kts 16°
2026-05-05 15:30 32.95563 -7.23917 26070 ft 464 kts 17°
2026-05-05 15:30 32.98526 -7.22450 25608 ft 461 kts 17°
2026-05-05 15:30 33.01481 -7.20986 25153 ft 458 kts 17°
2026-05-05 15:31 33.04417 -7.19531 24714 ft 455 kts 17°
2026-05-05 15:31 33.07324 -7.18088 24272 ft 452 kts 18°
2026-05-05 15:31 33.10219 -7.16651 23810 ft 449 kts 18°
2026-05-05 15:31 33.13098 -7.15221 23343 ft 447 kts 18°
2026-05-05 15:32 33.15956 -7.13799 22849 ft 443 kts 18°
2026-05-05 15:32 33.18789 -7.12387 22399 ft 439 kts 18°
2026-05-05 15:32 33.21597 -7.10988 21968 ft 435 kts 18°
2026-05-05 15:32 33.24380 -7.09601 21540 ft 432 kts 18°
2026-05-05 15:33 33.27140 -7.08225 21112 ft 428 kts 18°
2026-05-05 15:33 33.29878 -7.06858 20700 ft 425 kts 18°
2026-05-05 15:33 33.32600 -7.05499 20278 ft 422 kts 18°
2026-05-05 15:33 33.35299 -7.04151 19864 ft 419 kts 18°
2026-05-05 15:34 33.37977 -7.02812 19437 ft 416 kts 18°
2026-05-05 15:34 33.40605 -7.01497 19042 ft 414 kts 18°
2026-05-05 15:34 33.43265 -7.00166 18620 ft 413 kts 18°
2026-05-05 15:34 33.45907 -6.98843 18167 ft 411 kts 18°
2026-05-05 15:35 33.48544 -6.97520 17702 ft 409 kts 18°
2026-05-05 15:35 33.51163 -6.96207 17283 ft 407 kts 18°
2026-05-05 15:35 33.53768 -6.94898 16837 ft 405 kts 18°
2026-05-05 15:35 33.56356 -6.93599 16418 ft 402 kts 18°
2026-05-05 15:36 33.58930 -6.92305 16006 ft 400 kts 18°
2026-05-05 15:36 33.61489 -6.91017 15591 ft 398 kts 19°
2026-05-05 15:36 33.64010 -6.89670 15177 ft 398 kts 23°
2026-05-05 15:36 33.66400 -6.87983 14751 ft 399 kts 32°
2026-05-05 15:37 33.68623 -6.85992 14357 ft 398 kts 34°
2026-05-05 15:37 33.70830 -6.83997 13934 ft 397 kts 34°
2026-05-05 15:37 33.73038 -6.82012 13485 ft 395 kts 34°
2026-05-05 15:37 33.75236 -6.80043 13039 ft 393 kts 34°
2026-05-05 15:38 33.77425 -6.78087 12637 ft 391 kts 35°
2026-05-05 15:38 33.79601 -6.76144 12212 ft 388 kts 35°
2026-05-05 15:38 33.81761 -6.74216 11802 ft 385 kts 35°
2026-05-05 15:38 33.83904 -6.72300 11396 ft 382 kts 35°
2026-05-05 15:39 33.86029 -6.70402 10987 ft 380 kts 35°
2026-05-05 15:39 33.88146 -6.68511 10595 ft 377 kts 35°
2026-05-05 15:39 33.90228 -6.66648 10433 ft 368 kts 35°
2026-05-05 15:39 33.92259 -6.64828 10260 ft 360 kts 35°
2026-05-05 15:40 33.94243 -6.63051 10114 ft 351 kts 35°
2026-05-05 15:40 33.96177 -6.61318 9867 ft 341 kts 35°
2026-05-05 15:40 33.98006 -6.59677 9653 ft 314 kts 35°
2026-05-05 15:40 33.99702 -6.58152 9239 ft 295 kts 34°
2026-05-05 15:41 34.01315 -6.56704 8878 ft 285 kts 35°
2026-05-05 15:41 34.02893 -6.55289 8564 ft 281 kts 35°
2026-05-05 15:41 34.04449 -6.53893 8257 ft 276 kts 35°
2026-05-05 15:41 34.05972 -6.52525 7974 ft 271 kts 34°
2026-05-05 15:42 34.07498 -6.51154 7698 ft 276 kts 35°
2026-05-05 15:42 34.09055 -6.49755 7411 ft 282 kts 35°
2026-05-05 15:42 34.10633 -6.48335 7085 ft 284 kts 35°
2026-05-05 15:42 34.12229 -6.47042 6890 ft 267 kts 20°
2026-05-05 15:43 34.13963 -6.46675 6756 ft 245 kts 349°
2026-05-05 15:43 34.15553 -6.47251 6525 ft 239 kts 328°
2026-05-05 15:43 34.16955 -6.48348 6252 ft 240 kts 313°
2026-05-05 15:43 34.17981 -6.49908 5937 ft 237 kts 298°
2026-05-05 15:44 34.18824 -6.51629 5631 ft 239 kts 297°
2026-05-05 15:44 34.19661 -6.53348 5308 ft 235 kts 298°
2026-05-05 15:44 34.20491 -6.55021 5003 ft 229 kts 298°
2026-05-05 15:44 34.21314 -6.56660 4714 ft 228 kts 299°
2026-05-05 15:45 34.22137 -6.58297 4437 ft 227 kts 298°
2026-05-05 15:45 34.22659 -6.59778 4159 ft 221 kts 275°
2026-05-05 15:45 34.22477 -6.61562 3975 ft 219 kts 249°
2026-05-05 15:45 34.21677 -6.63132 3631 ft 225 kts 224°
2026-05-05 15:46 34.20341 -6.64140 3367 ft 228 kts 210°
2026-05-05 15:46 34.18972 -6.65082 3090 ft 221 kts 213°
2026-05-05 15:46 34.17708 -6.65984 3005 ft 203 kts 213°
2026-05-05 15:46 34.16523 -6.66837 2883 ft 201 kts 216°
2026-05-05 15:47 34.15272 -6.67752 2338 ft 213 kts 214°
2026-05-05 15:47 34.14447 -6.68352 2083 ft 206 kts 214°
2026-05-05 15:47 34.12884 -6.69490 1695 ft 188 kts 214°
2026-05-05 15:47 34.11810 -6.70274 1442 ft 170 kts 214°
2026-05-05 15:48 34.10839 -6.70983 1228 ft 157 kts 215°
2026-05-05 15:48 34.09899 -6.71673 1076 ft 159 kts 214°
2026-05-05 15:48 34.08954 -6.72364 830 ft 156 kts 213°
2026-05-05 15:48 34.08037 -6.73025 636 ft 156 kts 214°
2026-05-05 15:49 34.07107 -6.73696 415 ft 154 kts 217°
2026-05-05 15:49 34.06197 -6.74381 289 ft 155 kts 216°
2026-05-05 15:49 34.05337 -6.75016 265 ft 129 kts 211°
2026-05-05 15:49 34.04704 -6.75479 269 ft 84 kts 211°
2026-05-05 15:50 34.04399 -6.75645 273 ft 31 kts 187°
2026-05-05 15:50 34.04230 -6.75651 273 ft 18 kts 184°
2026-05-05 15:50 34.04109 -6.75666 273 ft 18 kts 195°
2026-05-05 15:50 34.04000 -6.75726 273 ft 14 kts 178°
2026-05-05 15:51 34.03933 -6.75638 273 ft 15 kts 121°
2026-05-05 15:51 34.03875 -6.75523 273 ft 17 kts 121°
2026-05-05 15:51 34.03828 -6.75427 273 ft 9 kts 121°
2026-05-05 15:51 34.03812 -6.75394 273 ft 1 kts 120°
2026-05-05 15:52 34.03806 -6.75384 273 ft 2 kts 120°
2026-05-05 15:52 34.03800 -6.75371 273 ft 2 kts 120°
2026-05-05 15:52 34.03790 -6.75346 273 ft 8 kts 109°
2026-05-05 15:52 34.03860 -6.75274 273 ft 20 kts 31°
2026-05-05 15:53 34.03871 -6.75183 273 ft 11 kts 167°
2026-05-05 15:53 34.03824 -6.75208 273 ft 7 kts 212°
2026-05-05 15:53 34.03792 -6.75231 273 ft 3 kts 212°
2026-05-05 15:53 34.03789 -6.75233 273 ft 0 kts 212°